Orbital Elements
Epoch 2013 Apr. 18.0 TT = JDT 2456400.5
T 2013 May 7.75840 TT MPC
q 1.6002759 (2000.0) P Q
n 0.15237515 Peri. 0.05847 +0.10150970 -0.85735281
a 3.4715755 Node 84.12350 +0.91253682 -0.12176630
e 0.5390347 Incl. 30.48325 +0.39619733 +0.50011912
P 6.47
From 641 observations 1993 July 20-2013 Jan. 10, mean residual 0".9.
Nongravitational parameters A1 = -0.16, A2 = -0.0183.
|